Location: Unspecified
(0.0000°N, 0.0000°E)
Time: 15:24:56
(UTC+00:00)

OV1 4 Rocket - Visible Passes

Search period start: 13 November 2025 00:00
Search period end: 23 November 2025 00:00
Orbit: 877 x 995 km, 144.5° (Epoch: 13 November)

Date Brightness Start Highest point End Pass type
(mag) Time Alt. Az. Time Alt. Az. Time Alt. Az.
18 Nov 9.3 02:41:23 10° SSE 02:42:07 13° SSE 02:42:07 13° SSE visible
19 Nov 9.1 02:52:07 10° SSE 02:53:40 17° S 02:53:40 17° S visible
20 Nov 8.8 03:02:52 10° SSE 03:05:14 21° S 03:05:14 21° S visible
21 Nov 8.4 03:13:38 10° SSE 03:16:49 26° S 03:16:49 26° S visible
22 Nov 8.1 03:24:23 10° SSE 03:28:25 30° SSW 03:28:25 30° SSW visible
